| time (UTC) | temp C | wind direction | speed KPH | gust KPH | rain 1hr cm | rain 24hr cm | rain mn cm | humidity % | barometer mb |
| 20260505223223 | 28 | 274 | 3.2 | 3.2 | 0.00 | 0.00 | 0.00 | 73 | 1007.7 |
| 20260505222719 | 28 | 295 | 0.0 | 0.0 | 0.00 | 0.00 | 0.00 | 73 | 1007.7 |
| 20260505222215 | 28 | 73 | 4.8 | 4.8 | 0.00 | 0.00 | 0.00 | 73 | 1007.7 |
| 20260505221713 | 28 | 186 | 4.8 | 6.4 | 0.00 | 0.00 | 0.00 | 74 | 1008.0 |
| 20260505221209 | 28 | 57 | 3.2 | 3.2 | 0.00 | 0.00 | 0.00 | 74 | 1008.0 |
| 20260505220707 | 28 | 126 | 6.4 | 8.0 | 0.00 | 0.00 | 0.00 | 73 | 1007.7 |
| 20260505220204 | 29 | 281 | 0.0 | 0.0 | 0.00 | 0.00 | 0.00 | 73 | 1007.7 |
| 20260505215702 | 29 | 93 | 3.2 | 3.2 | 0.00 | 0.00 | 0.00 | 72 | 1008.0 |
| 20260505215200 | 28 | 66 | 4.8 | 4.8 | 0.00 | 0.00 | 0.00 | 73 | 1008.0 |
| 20260505214657 | 28 | 120 | 4.8 | 4.8 | 0.00 | 0.00 | 0.00 | 74 | 1008.3 |
| 20260505214154 | 28 | 158 | 4.8 | 4.8 | 0.00 | 0.00 | 0.00 | 75 | 1008.0 |
| 20260505213652 | 28 | 318 | 1.6 | 1.6 | 0.00 | 0.00 | 0.00 | 74 | 1008.3 |
| 20260505213148 | 29 | 186 | 3.2 | 3.2 | 0.00 | 0.00 | 0.00 | 73 | 1008.3 |
| 20260505212644 | 29 | 160 | 3.2 | 3.2 | 0.00 | 0.00 | 0.00 | 73 | 1008.3 |
| 20260505212142 | 29 | 206 | 3.2 | 3.2 | 0.00 | 0.00 | 0.00 | 73 | 1008.3 |
| 20260505211639 | 30 | 112 | 3.2 | 3.2 | 0.00 | 0.00 | 0.00 | 72 | 1008.3 |
| 20260505211136 | 29 | 174 | 3.2 | 3.2 | 0.00 | 0.00 | 0.00 | 73 | 1008.3 |
| 20260505210633 | 29 | 94 | 3.2 | 3.2 | 0.00 | 0.00 | 0.00 | 73 | 1008.7 |
| 20260505210130 | 29 | 114 | 3.2 | 3.2 | 0.00 | 0.00 | 0.00 | 72 | 1008.7 |
| 20260505205627 | 29 | 129 | 4.8 | 6.4 | 0.00 | 0.00 | 0.00 | 72 | 1008.7 |
| 20260505205125 | 30 | 262 | 3.2 | 3.2 | 0.00 | 0.00 | 0.00 | 71 | 1008.7 |
| 20260505204622 | 30 | 64 | 3.2 | 3.2 | 0.00 | 0.00 | 0.00 | 69 | 1008.7 |
| 20260505204119 | 30 | 54 | 3.2 | 3.2 | 0.00 | 0.00 | 0.00 | 70 | 1008.7 |
| 20260505203616 | 30 | 114 | 3.2 | 3.2 | 0.00 | 0.00 | 0.00 | 70 | 1008.7 |
| 20260505203113 | 30 | 307 | 3.2 | 3.2 | 0.00 | 0.00 | 0.00 | 70 | 1008.7 |
| 20260505202609 | 29 | 198 | 0.0 | 0.0 | 0.00 | 0.00 | 0.00 | 73 | 1009.0 |
| 20260505202105 | 30 | 272 | 3.2 | 3.2 | 0.00 | 0.00 | 0.00 | 71 | 1009.3 |
| 20260505201602 | 29 | 99 | 3.2 | 3.2 | 0.00 | 0.00 | 0.00 | 72 | 1009.0 |
| 20260505201100 | 30 | 66 | 3.2 | 3.2 | 0.00 | 0.00 | 0.00 | 72 | 1009.3 |
| 20260505200557 | 29 | 325 | 3.2 | 3.2 | 0.00 | 0.00 | 0.00 | 72 | 1009.3 |
| 20260505200054 | 28 | 324 | 4.8 | 4.8 | 0.00 | 0.00 | 0.00 | 73 | 1009.3 |
| 20260505195550 | 28 | 101 | 6.4 | 6.4 | 0.00 | 0.00 | 0.00 | 73 | 1009.7 |
| 20260505195048 | 28 | 282 | 3.2 | 3.2 | 0.00 | 0.00 | 0.00 | 74 | 1009.7 |
| 20260505194545 | 28 | 312 | 3.2 | 3.2 | 0.00 | 0.00 | 0.00 | 74 | 1009.7 |
| 20260505194040 | 29 | 288 | 4.8 | 6.4 | 0.00 | 0.00 | 0.00 | 73 | 1009.7 |
| 20260505193537 | 28 | 127 | 3.2 | 3.2 | 0.00 | 0.00 | 0.00 | 74 | 1009.7 |
| 20260505193035 | 29 | 90 | 4.8 | 4.8 | 0.00 | 0.00 | 0.00 | 73 | 1009.7 |
| 20260505192533 | 28 | 306 | 3.2 | 3.2 | 0.00 | 0.00 | 0.00 | 74 | 1009.7 |
| 20260505192030 | 28 | 294 | 3.2 | 3.2 | 0.00 | 0.00 | 0.00 | 75 | 1009.7 |
| 20260505191528 | 28 | 127 | 4.8 | 6.4 | 0.00 | 0.00 | 0.00 | 76 | 1009.7 |
| 20260505191026 | 28 | 132 | 4.8 | 4.8 | 0.00 | 0.00 | 0.00 | 75 | 1009.7 |
| 20260505190520 | 28 | 106 | 0.0 | 0.0 | 0.00 | 0.00 | 0.00 | 76 | 1009.7 |
| 20260505190017 | 28 | 126 | 3.2 | 3.2 | 0.00 | 0.00 | 0.00 | 76 | 1010.0 |
| 20260505185514 | 28 | 293 | 3.2 | 3.2 | 0.00 | 0.00 | 0.00 | 77 | 1010.0 |
| 20260505185010 | 28 | 148 | 4.8 | 4.8 | 0.00 | 0.00 | 0.00 | 76 | 1010.0 |
| 20260505184507 | 28 | 287 | 1.6 | 1.6 | 0.00 | 0.00 | 0.00 | 75 | 1010.0 |
| 20260505184003 | 28 | 170 | 1.6 | 1.6 | 0.00 | 0.00 | 0.00 | 75 | 1010.0 |
| 20260505183501 | 28 | 301 | 3.2 | 3.2 | 0.00 | 0.00 | 0.00 | 75 | 1010.0 |
| 20260505182957 | 28 | 156 | 3.2 | 3.2 | 0.00 | 0.00 | 0.00 | 75 | 1010.0 |
| 20260505182454 | 28 | 252 | 3.2 | 3.2 | 0.00 | 0.00 | 0.00 | 76 | 1010.0 |
| 20260505181950 | 27 | 198 | 3.2 | 3.2 | 0.00 | 0.00 | 0.00 | 77 | 1010.0 |
| 20260505181448 | 27 | 258 | 3.2 | 3.2 | 0.00 | 0.00 | 0.00 | 77 | 1010.0 |
| 20260505180945 | 27 | 36 | 3.2 | 3.2 | 0.00 | 0.00 | 0.00 | 79 | 1010.4 |
| 20260505180441 | 27 | 132 | 3.2 | 3.2 | 0.00 | 0.00 | 0.00 | 79 | 1010.0 |
| 20260505175938 | 27 | 168 | 1.6 | 1.6 | 0.00 | 0.00 | 0.00 | 78 | 1010.4 |
| 20260505175434 | 27 | 12 | 3.2 | 3.2 | 0.00 | 0.00 | 0.00 | 79 | 1010.0 |
| 20260505174930 | 27 | 223 | 0.0 | 0.0 | 0.00 | 0.00 | 0.00 | 80 | 1010.4 |
| 20260505174428 | 27 | 180 | 0.0 | 0.0 | 0.00 | 0.00 | 0.00 | 80 | 1010.4 |
| 20260505173924 | 26 | 306 | 3.2 | 3.2 | 0.00 | 0.00 | 0.00 | 81 | 1010.7 |
| 20260505173420 | 27 | 48 | 3.2 | 3.2 | 0.00 | 0.00 | 0.00 | 81 | 1010.4 |
| 20260505172918 | 27 | 18 | 3.2 | 3.2 | 0.00 | 0.00 | 0.00 | 79 | 1010.4 |
| 20260505172416 | 27 | 18 | 3.2 | 3.2 | 0.00 | 0.00 | 0.00 | 79 | 1010.4 |
| 20260505171915 | 27 | 222 | 3.2 | 3.2 | 0.00 | 0.00 | 0.00 | 79 | 1010.4 |
| 20260505171412 | 27 | 348 | 0.0 | 0.0 | 0.00 | 0.00 | 0.00 | 79 | 1010.7 |
| 20260505170909 | 27 | 282 | 4.8 | 4.8 | 0.00 | 0.00 | 0.00 | 79 | 1010.7 |
| 20260505170405 | 27 | 145 | 3.2 | 3.2 | 0.00 | 0.00 | 0.00 | 79 | 1010.7 |
| 20260505165901 | 27 | 65 | 3.2 | 3.2 | 0.00 | 0.00 | 0.00 | 80 | 1010.7 |
| 20260505165356 | 26 | 73 | 0.0 | 0.0 | 0.00 | 0.00 | 0.00 | 81 | 1010.7 |
| 20260505164852 | 26 | 258 | 0.0 | 0.0 | 0.00 | 0.00 | 0.00 | 81 | 1010.7 |
| 20260505164349 | 26 | 318 | 3.2 | 3.2 | 0.00 | 0.00 | 0.00 | 82 | 1010.7 |
| 20260505163847 | 26 | 288 | 3.2 | 3.2 | 0.00 | 0.00 | 0.00 | 83 | 1010.7 |
| 20260505163346 | 26 | 170 | 3.2 | 3.2 | 0.00 | 0.00 | 0.00 | 83 | 1010.7 |
| 20260505162844 | 26 | 252 | 4.8 | 4.8 | 0.00 | 0.00 | 0.00 | 84 | 1010.7 |
| 20260505162340 | 26 | 292 | 3.2 | 3.2 | 0.00 | 0.00 | 0.00 | 84 | 1010.7 |
| 20260505161837 | 26 | 120 | 4.8 | 4.8 | 0.00 | 0.00 | 0.00 | 84 | 1010.4 |
| 20260505161334 | 26 | 264 | 1.6 | 1.6 | 0.00 | 0.00 | 0.00 | 83 | 1010.7 |
| 20260505160831 | 26 | 293 | 3.2 | 3.2 | 0.00 | 0.00 | 0.00 | 83 | 1010.7 |
| 20260505160329 | 26 | 174 | 4.8 | 4.8 | 0.00 | 0.00 | 0.00 | 83 | 1010.4 |
| 20260505153302 | 25 | 89 | 3.2 | 3.2 | 0.00 | 0.00 | 0.00 | 85 | 1010.4 |
| 20260505152759 | 25 | 151 | 0.0 | 0.0 | 0.00 | 0.00 | 0.00 | 85 | 1010.4 |
| 20260505152255 | 25 | 174 | 3.2 | 3.2 | 0.00 | 0.00 | 0.00 | 85 | 1010.4 |
| 20260505151750 | 25 | 133 | 3.2 | 3.2 | 0.00 | 0.00 | 0.00 | 85 | 1010.4 |
| 20260505151248 | 25 | 162 | 3.2 | 3.2 | 0.00 | 0.00 | 0.00 | 86 | 1010.4 |
| 20260505150744 | 25 | 174 | 0.0 | 0.0 | 0.00 | 0.00 | 0.00 | 86 | 1010.4 |
| 20260505150241 | 25 | 180 | 0.0 | 0.0 | 0.00 | 0.00 | 0.00 | 85 | 1010.4 |
| 20260505140206 | 25 | 162 | 1.6 | 1.6 | 0.00 | 0.00 | 0.00 | 87 | 1009.7 |
| 20260505130130 | 23 | 285 | 3.2 | 3.2 | 0.00 | 0.00 | 0.00 | 90 | 1010.0 |
| 20260505124619 | 23 | 156 | 3.2 | 3.2 | 0.00 | 0.00 | 0.00 | 91 | 1009.7 |
| 20260505124116 | 23 | 115 | 0.0 | 0.0 | 0.00 | 0.00 | 0.00 | 91 | 1010.0 |
| 20260505123612 | 23 | 137 | 0.0 | 0.0 | 0.00 | 0.00 | 0.00 | 91 | 1010.0 |
| 20260505123109 | 22 | 137 | 0.0 | 0.0 | 0.00 | 0.00 | 0.00 | 92 | 1010.0 |
| 20260505122605 | 22 | 140 | 0.0 | 0.0 | 0.00 | 0.00 | 0.00 | 92 | 1009.7 |
| 20260505122103 | 22 | 101 | 1.6 | 1.6 | 0.00 | 0.00 | 0.00 | 92 | 1009.7 |
| 20260505121559 | 22 | 101 | 0.0 | 0.0 | 0.00 | 0.00 | 0.00 | 92 | 1009.7 |
| 20260505121056 | 22 | 264 | 1.6 | 1.6 | 0.00 | 0.00 | 0.00 | 93 | 1009.7 |
| 20260505120552 | 22 | 156 | 3.2 | 3.2 | 0.00 | 0.00 | 0.00 | 93 | 1009.3 |
| 20260505120048 | 22 | 136 | 0.0 | 0.0 | 0.00 | 0.00 | 0.00 | 93 | 1009.7 |
| 20260505115542 | 22 | 132 | 0.0 | 0.0 | 0.00 | 0.00 | 0.00 | 93 | 1009.3 |
| 20260505115040 | 22 | 132 | 0.0 | 0.0 | 0.00 | 0.00 | 0.00 | 93 | 1009.3 |
| 20260505114537 | 22 | 105 | 0.0 | 0.0 | 0.00 | 0.00 | 0.00 | 93 | 1009.7 |
| 20260505114033 | 22 | 127 | 1.6 | 1.6 | 0.00 | 0.00 | 0.00 | 93 | 1009.7 |
| 20260505113530 | 22 | 120 | 0.0 | 0.0 | 0.00 | 0.00 | 0.00 | 93 | 1009.7 |
| 20260505113026 | 22 | 120 | 1.6 | 1.6 | 0.00 | 0.00 | 0.00 | 93 | 1009.7 |
| 20260505112523 | 22 | 150 | 3.2 | 3.2 | 0.00 | 0.00 | 0.00 | 92 | 1009.7 |
| 20260505112021 | 22 | 149 | 0.0 | 0.0 | 0.00 | 0.00 | 0.00 | 92 | 1009.3 |
| 20260505111514 | 22 | 149 | 0.0 | 0.0 | 0.00 | 0.00 | 0.00 | 92 | 1009.3 |
| 20260505111011 | 22 | 156 | 0.0 | 0.0 | 0.00 | 0.00 | 0.00 | 92 | 1009.7 |
| 20260505110508 | 22 | 95 | 0.0 | 0.0 | 0.00 | 0.00 | 0.00 | 92 | 1009.7 |
| 20260505101939 | 21 | 186 | 0.0 | 0.0 | 0.00 | 0.00 | 0.00 | 93 | 1009.7 |
| 20260505101432 | 21 | 180 | 0.0 | 0.0 | 0.00 | 0.00 | 0.00 | 93 | 1009.3 |
| 20260505100929 | 21 | 180 | 0.0 | 0.0 | 0.00 | 0.00 | 0.00 | 93 | 1009.7 |
| 20260505100426 | 21 | 186 | 3.2 | 3.2 | 0.00 | 0.00 | 0.00 | 93 | 1009.7 |
| 20260505095921 | 21 | 186 | 3.2 | 3.2 | 0.00 | 0.00 | 0.00 | 93 | 1009.7 |
| 20260505095419 | 21 | 216 | 0.0 | 0.0 | 0.00 | 0.00 | 0.00 | 93 | 1009.7 |
| 20260505094914 | 21 | 216 | 0.0 | 0.0 | 0.00 | 0.00 | 0.00 | 93 | 1009.7 |
| 20260505094412 | 21 | 212 | 1.6 | 1.6 | 0.00 | 0.00 | 0.00 | 92 | 1009.7 |
| 20260505093908 | 21 | 180 | 3.2 | 3.2 | 0.00 | 0.00 | 0.00 | 92 | 1009.7 |
| 20260505093405 | 21 | 180 | 0.0 | 0.0 | 0.00 | 0.00 | 0.00 | 92 | 1009.7 |
| 20260505092902 | 21 | 144 | 0.0 | 0.0 | 0.00 | 0.00 | 0.00 | 92 | 1009.7 |
| 20260505092400 | 22 | 144 | 0.0 | 0.0 | 0.00 | 0.00 | 0.00 | 91 | 1009.7 |
| 20260505091857 | 22 | 168 | 0.0 | 0.0 | 0.00 | 0.00 | 0.00 | 91 | 1010.0 |
| 20260505091355 | 22 | 128 | 3.2 | 3.2 | 0.00 | 0.00 | 0.00 | 91 | 1009.7 |
| 20260505090853 | 22 | 82 | 3.2 | 3.2 | 0.00 | 0.00 | 0.00 | 91 | 1010.0 |
| 20260505090351 | 22 | 354 | 0.0 | 0.0 | 0.00 | 0.00 | 0.00 | 91 | 1009.7 |
| 20260505085848 | 22 | 126 | 1.6 | 1.6 | 0.00 | 0.00 | 0.00 | 91 | 1009.7 |
| 20260505085346 | 21 | 102 | 3.2 | 3.2 | 0.00 | 0.00 | 0.00 | 91 | 1010.0 |
| 20260505084843 | 21 | 98 | 0.0 | 0.0 | 0.00 | 0.00 | 0.00 | 91 | 1009.7 |
| 20260505084341 | 21 | 192 | 3.2 | 3.2 | 0.00 | 0.00 | 0.00 | 91 | 1010.0 |
| 20260505083838 | 21 | 120 | 0.0 | 0.0 | 0.00 | 0.00 | 0.00 | 91 | 1010.0 |
| 20260505083336 | 21 | 108 | 1.6 | 1.6 | 0.00 | 0.00 | 0.00 | 91 | 1010.0 |
| 20260505082832 | 21 | 38 | 3.2 | 3.2 | 0.00 | 0.00 | 0.00 | 91 | 1010.0 |
| 20260505082328 | 21 | 38 | 0.0 | 0.0 | 0.00 | 0.00 | 0.00 | 91 | 1010.0 |
| 20260505081825 | 22 | 37 | 0.0 | 0.0 | 0.00 | 0.00 | 0.00 | 91 | 1010.4 |
| 20260505081322 | 22 | 37 | 0.0 | 0.0 | 0.00 | 0.00 | 0.00 | 90 | 1010.4 |
| 20260505080819 | 22 | 138 | 3.2 | 3.2 | 0.00 | 0.00 | 0.00 | 90 | 1010.4 |
| 20260505080314 | 22 | 120 | 0.0 | 0.0 | 0.00 | 0.00 | 0.00 | 90 | 1010.4 |
| 20260505075810 | 22 | 66 | 0.0 | 0.0 | 0.00 | 0.00 | 0.00 | 90 | 1010.4 |
| 20260505075307 | 22 | 147 | 3.2 | 3.2 | 0.00 | 0.00 | 0.00 | 90 | 1010.4 |
| 20260505074804 | 22 | 180 | 0.0 | 0.0 | 0.00 | 0.00 | 0.00 | 89 | 1010.7 |
| 20260505074302 | 22 | 180 | 0.0 | 0.0 | 0.00 | 0.00 | 0.00 | 89 | 1010.7 |
| 20260505073759 | 22 | 150 | 0.0 | 0.0 | 0.00 | 0.00 | 0.00 | 89 | 1010.7 |
| 20260505073257 | 22 | 282 | 3.2 | 3.2 | 0.00 | 0.00 | 0.00 | 89 | 1010.4 |
| 20260505072753 | 22 | 180 | 1.6 | 1.6 | 0.00 | 0.00 | 0.00 | 89 | 1010.4 |
| 20260505072250 | 22 | 131 | 3.2 | 3.2 | 0.00 | 0.00 | 0.00 | 89 | 1010.7 |
| 20260505071746 | 22 | 270 | 0.0 | 0.0 | 0.00 | 0.00 | 0.00 | 88 | 1010.7 |
| 20260505071242 | 22 | 186 | 1.6 | 1.6 | 0.00 | 0.00 | 0.00 | 88 | 1010.7 |
| 20260505070740 | 22 | 212 | 3.2 | 3.2 | 0.00 | 0.00 | 0.00 | 88 | 1010.7 |
| 20260505070236 | 22 | 306 | 0.0 | 0.0 | 0.00 | 0.00 | 0.00 | 88 | 1010.7 |
| 20260505065732 | 22 | 186 | 1.6 | 1.6 | 0.00 | 0.00 | 0.00 | 88 | 1010.7 |
| 20260505065229 | 22 | 284 | 0.0 | 0.0 | 0.00 | 0.00 | 0.00 | 88 | 1010.7 |
| 20260505064726 | 22 | 240 | 0.0 | 0.0 | 0.00 | 0.00 | 0.00 | 87 | 1010.7 |
| 20260505064224 | 22 | 140 | 3.2 | 3.2 | 0.00 | 0.00 | 0.00 | 87 | 1010.7 |
| 20260505063721 | 22 | 204 | 0.0 | 0.0 | 0.00 | 0.00 | 0.00 | 87 | 1010.7 |
| 20260505063217 | 22 | 194 | 3.2 | 3.2 | 0.00 | 0.00 | 0.00 | 87 | 1011.0 |
| 20260505062713 | 22 | 137 | 0.0 | 0.0 | 0.00 | 0.00 | 0.00 | 87 | 1011.0 |
| 20260505062211 | 22 | 133 | 3.2 | 3.2 | 0.00 | 0.00 | 0.00 | 87 | 1011.4 |
| 20260505061708 | 22 | 180 | 0.0 | 0.0 | 0.00 | 0.00 | 0.00 | 87 | 1011.4 |
| 20260505061206 | 22 | 180 | 0.0 | 0.0 | 0.00 | 0.00 | 0.00 | 87 | 1011.4 |
| 20260505060703 | 22 | 288 | 3.2 | 3.2 | 0.00 | 0.00 | 0.00 | 87 | 1011.4 |
| 20260505060200 | 22 | 331 | 0.0 | 0.0 | 0.00 | 0.00 | 0.00 | 87 | 1011.4 |
| 20260505055655 | 22 | 331 | 3.2 | 3.2 | 0.00 | 0.00 | 0.00 | 86 | 1011.4 |
| 20260505055152 | 22 | 230 | 0.0 | 0.0 | 0.00 | 0.00 | 0.00 | 86 | 1011.4 |
| 20260505054649 | 22 | 127 | 0.0 | 0.0 | 0.00 | 0.00 | 0.00 | 86 | 1011.0 |
| 20260505054147 | 22 | 128 | 1.6 | 1.6 | 0.00 | 0.00 | 0.00 | 86 | 1011.0 |
| 20260505053645 | 22 | 168 | 0.0 | 0.0 | 0.00 | 0.00 | 0.00 | 86 | 1011.7 |
| 20260505053141 | 22 | 153 | 0.0 | 0.0 | 0.00 | 0.00 | 0.00 | 85 | 1011.4 |
| 20260505052638 | 22 | 198 | 0.0 | 0.0 | 0.00 | 0.00 | 0.00 | 85 | 1011.7 |
| 20260505052135 | 22 | 264 | 0.0 | 0.0 | 0.00 | 0.00 | 0.00 | 85 | 1011.7 |
| 20260505051632 | 22 | 264 | 0.0 | 0.0 | 0.00 | 0.00 | 0.00 | 85 | 1011.7 |
| 20260505051130 | 22 | 156 | 0.0 | 0.0 | 0.00 | 0.00 | 0.00 | 84 | 1011.7 |
| 20260505050628 | 22 | 300 | 0.0 | 0.0 | 0.00 | 0.00 | 0.00 | 84 | 1011.7 |
| 20260505050126 | 22 | 198 | 3.2 | 3.2 | 0.00 | 0.00 | 0.00 | 84 | 1011.7 |
| 20260505041555 | 22 | 180 | 0.0 | 0.0 | 0.00 | 0.00 | 0.00 | 82 | 1011.4 |
| 20260505041053 | 22 | 174 | 3.2 | 3.2 | 0.00 | 0.00 | 0.00 | 81 | 1011.4 |
| 20260505040550 | 22 | 122 | 0.0 | 0.0 | 0.00 | 0.00 | 0.00 | 81 | 1011.7 |
| 20260505040047 | 22 | 120 | 0.0 | 0.0 | 0.00 | 0.00 | 0.00 | 81 | 1012.1 |
| 20260505035543 | 22 | 132 | 3.2 | 3.2 | 0.00 | 0.00 | 0.00 | 81 | 1012.1 |
| 20260505035040 | 22 | 64 | 1.6 | 1.6 | 0.00 | 0.00 | 0.00 | 81 | 1011.7 |
| 20260505034536 | 22 | 58 | 3.2 | 3.2 | 0.00 | 0.00 | 0.00 | 80 | 1012.1 |
| 20260505034033 | 23 | 144 | 4.8 | 4.8 | 0.00 | 0.00 | 0.00 | 80 | 1012.4 |
| 20260505033530 | 23 | 198 | 3.2 | 3.2 | 0.00 | 0.00 | 0.00 | 80 | 1012.1 |
| 20260505033029 | 23 | 120 | 4.8 | 4.8 | 0.00 | 0.00 | 0.00 | 79 | 1012.1 |
| 20260505032526 | 23 | 95 | 4.8 | 6.4 | 0.00 | 0.00 | 0.00 | 79 | 1012.1 |
| 20260505032022 | 23 | 256 | 3.2 | 3.2 | 0.00 | 0.00 | 0.00 | 79 | 1012.1 |
| 20260505031520 | 23 | 120 | 3.2 | 3.2 | 0.00 | 0.00 | 0.00 | 79 | 1011.7 |
| 20260505031016 | 23 | 147 | 3.2 | 3.2 | 0.00 | 0.00 | 0.00 | 78 | 1011.7 |
| 20260505030513 | 23 | 84 | 3.2 | 3.2 | 0.00 | 0.00 | 0.00 | 78 | 1011.7 |
| 20260505030009 | 23 | 144 | 3.2 | 3.2 | 0.00 | 0.00 | 0.00 | 78 | 1011.7 |
| 20260505025505 | 23 | 301 | 3.2 | 3.2 | 0.00 | 0.00 | 0.00 | 78 | 1012.4 |
| 20260505025004 | 23 | 207 | 3.2 | 3.2 | 0.00 | 0.00 | 0.00 | 78 | 1012.1 |
| 20260505024500 | 23 | 286 | 3.2 | 3.2 | 0.00 | 0.00 | 0.00 | 77 | 1012.1 |
| 20260505023958 | 23 | 288 | 3.2 | 3.2 | 0.00 | 0.00 | 0.00 | 77 | 1011.7 |
| 20260505023454 | 23 | 91 | 1.6 | 1.6 | 0.00 | 0.00 | 0.00 | 77 | 1011.7 |
| 20260505022952 | 23 | 270 | 1.6 | 1.6 | 0.00 | 0.00 | 0.00 | 77 | 1011.7 |
| 20260505022449 | 23 | 113 | 4.8 | 4.8 | 0.00 | 0.00 | 0.00 | 76 | 1011.7 |
| 20260505021947 | 23 | 292 | 0.0 | 0.0 | 0.00 | 0.00 | 0.00 | 76 | 1012.1 |
| 20260505021443 | 23 | 180 | 4.8 | 4.8 | 0.00 | 0.00 | 0.00 | 76 | 1011.7 |
| 20260505020939 | 23 | 152 | 3.2 | 3.2 | 0.00 | 0.00 | 0.00 | 76 | 1012.1 |
| 20260505020434 | 23 | 180 | 3.2 | 3.2 | 0.00 | 0.00 | 0.00 | 76 | 1011.7 |
| 20260505015931 | 23 | 186 | 3.2 | 3.2 | 0.00 | 0.00 | 0.00 | 75 | 1011.4 |
| 20260505015428 | 23 | 133 | 3.2 | 3.2 | 0.00 | 0.00 | 0.00 | 75 | 1011.7 |
| 20260505014926 | 23 | 103 | 3.2 | 3.2 | 0.00 | 0.00 | 0.00 | 75 | 1011.7 |
| 20260505014422 | 24 | 306 | 4.8 | 4.8 | 0.00 | 0.00 | 0.00 | 75 | 1011.4 |
| 20260505013919 | 24 | 294 | 3.2 | 3.2 | 0.00 | 0.00 | 0.00 | 75 | 1011.7 |
| 20260505013416 | 24 | 150 | 1.6 | 1.6 | 0.00 | 0.00 | 0.00 | 74 | 1011.4 |
| 20260505012914 | 24 | 153 | 4.8 | 6.4 | 0.00 | 0.00 | 0.00 | 74 | 1011.4 |
| 20260505012412 | 24 | 291 | 0.0 | 0.0 | 0.00 | 0.00 | 0.00 | 74 | 1011.0 |
| 20260505011908 | 24 | 129 | 1.6 | 1.6 | 0.00 | 0.00 | 0.00 | 74 | 1011.4 |
| 20260505011405 | 24 | 122 | 0.0 | 0.0 | 0.00 | 0.00 | 0.00 | 74 | 1011.4 |
| 20260505010901 | 24 | 156 | 0.0 | 0.0 | 0.00 | 0.00 | 0.00 | 74 | 1011.4 |
| 20260505010357 | 24 | 180 | 1.6 | 1.6 | 0.00 | 0.00 | 0.00 | 73 | 1011.4 |
| 20260505005853 | 24 | 276 | 0.0 | 0.0 | 0.00 | 0.00 | 0.00 | 73 | 1011.4 |
| 20260505005350 | 24 | 204 | 0.0 | 0.0 | 0.00 | 0.00 | 0.00 | 72 | 1011.4 |
| 20260505004848 | 25 | 300 | 1.6 | 1.6 | 0.00 | 0.00 | 0.00 | 72 | 1011.4 |
| 20260505004344 | 25 | 121 | 0.0 | 0.0 | 0.00 | 0.00 | 0.00 | 72 | 1011.4 |
| 20260505003841 | 25 | 120 | 0.0 | 0.0 | 0.00 | 0.00 | 0.00 | 72 | 1011.0 |
| 20260505003338 | 25 | 79 | 3.2 | 3.2 | 0.00 | 0.00 | 0.00 | 72 | 1011.0 |
| 20260505002834 | 25 | 77 | 3.2 | 3.2 | 0.00 | 0.00 | 0.00 | 71 | 1011.0 |
| 20260505002331 | 25 | 108 | 1.6 | 1.6 | 0.00 | 0.00 | 0.00 | 71 | 1011.0 |
| 20260505001830 | 25 | 127 | 0.0 | 0.0 | 0.00 | 0.00 | 0.00 | 70 | 1011.0 |
| 20260505001326 | 25 | 132 | 0.0 | 0.0 | 0.00 | 0.00 | 0.00 | 70 | 1011.4 |
| 20260505000824 | 25 | 132 | 0.0 | 0.0 | 0.00 | 0.00 | 0.00 | 70 | 1011.4 |
| 20260505000321 | 25 | 270 | 0.0 | 0.0 | 0.00 | 0.00 | 0.00 | 69 | 1011.4 |
| 20260504235818 | 25 | 94 | 3.2 | 3.2 | 0.00 | 0.00 | 0.00 | 68 | 1011.4 |
| 20260504235315 | 25 | 114 | 3.2 | 3.2 | 0.00 | 0.00 | 0.00 | 68 | 1011.4 |
| 20260504234811 | 25 | 156 | 0.0 | 0.0 | 0.00 | 0.00 | 0.00 | 68 | 1011.4 |
| 20260504234309 | 25 | 186 | 6.4 | 6.4 | 0.00 | 0.00 | 0.00 | 68 | 1011.4 |
| 20260504233805 | 25 | 206 | 3.2 | 3.2 | 0.00 | 0.00 | 0.00 | 68 | 1011.7 |
| 20260504233301 | 26 | 168 | 3.2 | 3.2 | 0.00 | 0.00 | 0.00 | 67 | 1011.4 |
| 20260504232758 | 26 | 282 | 3.2 | 3.2 | 0.00 | 0.00 | 0.00 | 66 | 1011.4 |
| 20260504232255 | 26 | 115 | 3.2 | 3.2 | 0.00 | 0.00 | 0.00 | 65 | 1011.7 |
| 20260504231752 | 26 | 116 | 3.2 | 3.2 | 0.00 | 0.00 | 0.00 | 65 | 1011.7 |
| 20260504231248 | 26 | 96 | 8.0 | 9.7 | 0.00 | 0.00 | 0.00 | 66 | 1011.7 |
| 20260504230744 | 26 | 126 | 0.0 | 0.0 | 0.00 | 0.00 | 0.00 | 65 | 1011.7 |
| 20260504230243 | 26 | 115 | 3.2 | 3.2 | 0.00 | 0.00 | 0.00 | 64 | 1011.7 |
| 20260504225741 | 26 | 282 | 0.0 | 0.0 | 0.00 | 0.00 | 0.00 | 64 | 1012.1 |
| 20260504225237 | 26 | 132 | 3.2 | 3.2 | 0.00 | 0.00 | 0.00 | 64 | 1011.7 |
| 20260504224735 | 26 | 143 | 3.2 | 3.2 | 0.00 | 0.00 | 0.00 | 64 | 1012.1 |
| 20260504224232 | 26 | 111 | 3.2 | 3.2 | 0.00 | 0.00 | 0.00 | 64 | 1012.1 |
| 20260504223728 | 26 | 61 | 3.2 | 3.2 | 0.00 | 0.00 | 0.00 | 64 | 1012.1 |